Chamberlain, SD

6:45 PM CDT on October 20, 2017 (GMT -0500)
Chamberlain

Weather History for K9V9 - November, 2013

Change the Weather History Date:

Friday, November 29, 2013

  Actual Average Record
Temperature  
Mean Temperature 34 °F -  
Max Temperature 48 °F 37 °F 60 °F (1998)
Min Temperature 19 °F 19 °F 3 °F (2001)
Degree Days  
Heating Degree Days 32    
Moisture  
Dew Point 22 °F    
Average Humidity 67    
Maximum Humidity 89    
Minimum Humidity 43    
Precipitation  
Precipitation 0.00 in - - ()
Sea Level Pressure  
Sea Level Pressure 30.16 in    
Wind  
Wind Speed 11 mph (SSW)    
Max Wind Speed 22 mph    
Max Gust Speed 26 mph    
Averages and records for this station are not official NWS values.
T = Trace of Precipitation, MM = Missing Value Source: NWS Daily Summary

Daily Weather History Graph

Daily Weather History Graph

Search for Another Location

Airport or City:

Trip Planner

Search our weather history database for the weather conditions in past years. The results will help you decide how hot, cold, wet, or windy it might be!

Date:

Astronomy

Nov. 29, 2013 Rise Set
Actual Time 7:49 AM CST 5:01 PM CST
Civil Twilight 7:17 AM CST 5:33 PM CST
Nautical Twilight 6:41 AM CST 6:09 PM CST
Astronomical Twilight 6:06 AM CST 6:44 PM CST
Moon 3:50 AM CST (11/29) 2:53 PM CST (11/29)
Length of Visible Light 10h 16m
Length of Day
9h 12m
Waning Crescent, 14% of the Moon is Illuminated
Nov 29
Waning Crescent
Dec 2
New
Dec 9
First Quarter
Dec 17
Full
Dec 25
Last Quarter

Hourly Weather History & Observations

Time (CST) Temp. Windchill Dew Point Humidity Pressure Visibility Wind Dir Wind Speed Gust Speed Precip Events Conditions
12:52 AM 19.9 °F 7.9 °F 16.0 °F 85% 30.38 in - SSE 11.5 mph - N/A   Unknown
1:52 AM 19.9 °F 7.3 °F 17.1 °F 89% 30.36 in - SSE 12.7 mph - N/A   Unknown
2:52 AM 19.9 °F 8.6 °F 16.0 °F 85% 30.34 in - SE 10.4 mph - N/A   Unknown
3:52 AM 19.9 °F 10.1 °F 16.0 °F 85% 30.31 in - SE 8.1 mph - N/A   Unknown
4:52 AM 23.0 °F 9.2 °F 18.0 °F 81% 30.26 in - SSE 17.3 mph - N/A   Unknown
5:52 AM 25.0 °F 13.1 °F 19.0 °F 78% 30.24 in - South 13.8 mph - N/A   Unknown
6:52 AM 26.1 °F 14.5 °F 19.0 °F 75% 30.23 in - South 13.8 mph - N/A   Unknown
7:52 AM 26.1 °F 15.0 °F 19.0 °F 75% 30.21 in - South 12.7 mph - N/A   Unknown
8:52 AM 28.9 °F 18.2 °F 21.0 °F 72% 30.19 in - South 13.8 mph - N/A   Unknown
9:52 AM 32.0 °F 19.5 °F 21.9 °F 66% 30.17 in - SSW 21.9 mph 26.5 mph N/A   Unknown
10:52 AM 36.0 °F 26.7 °F 23.0 °F 59% 30.16 in - SSW 15.0 mph 26.5 mph N/A   Unknown
11:52 AM 41.0 °F 33.5 °F 25.0 °F 53% 30.12 in - SSW 13.8 mph - N/A   Unknown
12:52 PM 45.0 °F 38.5 °F 26.1 °F 48% 30.09 in - SW 13.8 mph - N/A   Unknown
1:52 PM 48.0 °F - 27.0 °F 44% 30.06 in - WSW 13.8 mph - N/A   Unknown
2:52 PM 48.9 °F - 27.0 °F 43% 30.05 in - WSW 9.2 mph - N/A   Unknown
3:52 PM 48.9 °F - 27.0 °F 43% 30.05 in - WSW 9.2 mph - N/A   Unknown
4:52 PM 41.0 °F 37.1 °F 24.1 °F 51% 30.05 in - South 5.8 mph - N/A   Unknown
5:52 PM 39.0 °F - 25.0 °F 57% 30.06 in - Calm Calm - N/A   Unknown
6:52 PM 35.1 °F 32.2 °F 24.1 °F 64% 30.07 in - South 3.5 mph - N/A   Unknown
7:52 PM 36.0 °F - 25.0 °F 64% 30.07 in - Calm Calm - N/A   Unknown
8:52 PM 32.0 °F 25.6 °F 24.1 °F 73% 30.07 in - WSW 6.9 mph - N/A   Unknown
9:52 PM 30.0 °F 24.1 °F 24.1 °F 79% 30.07 in - SW 5.8 mph - N/A   Unknown
10:52 PM 30.0 °F 25.2 °F 24.1 °F 79% 30.07 in - WSW 4.6 mph - N/A   Unknown
11:52 PM 33.1 °F 28.7 °F 25.0 °F 72% 30.06 in - West 4.6 mph - N/A   Unknown